Location: Malmö
(55.6090°N, 13.0007°E)
Time: 08:19:16
(UTC+01:00)

ISS - Pass Details

Date: 24 January 2021
Orbit: 417 x 422 km, 51.6° (Epoch: 05 March)

Event Time Altitude Azimuth Distance (km) Brightness Sun altitude
Rises 18:43:08 0° 241° (WSW) 2,371 1.3 -18.8°
Reaches altitude 10° 18:45:20 10° 232° (SW) 1,508 -0.1 -19.1°
Enters shadow 18:48:25 34° 167° (SSE) 721 -2.7 -19.5°
